CW3001 Weather Reports


time (UTC)temp
C
wind
direction
speed
KPH
gust
KPH
rain 1hr
cm
rain 24hr
cm
rain mn
cm
humidity
%
barometer
mb
20260510113600 18 35 12.9 24.1 0.00 0.00 0.00 47 1013.3
20260510113351 18 35 14.5 24.1 0.00 0.00 0.00 46 1013.3
20260510112600 18 47 11.3 25.7 0.00 0.00 0.00 48 1013.4
20260510112118 18 27 14.5 27.4 0.00 0.00 0.00 49 1013.4
20260510111601 18 52 9.7 27.4 0.00 0.00 0.00 47 1013.5
20260510111347 18 48 14.5 27.4 0.00 0.00 0.00 48 1013.6
20260510110604 18 78 9.7 25.7 0.00 0.00 0.00 51 1013.7
20260510110115 18 35 9.7 25.7 0.00 0.00 0.00 48 1013.7
20260510105600 17 63 12.9 24.1 0.00 0.00 0.00 49 1013.8
20260510105102 17 52 16.1 24.1 0.00 0.00 0.00 49 1013.8
20260510104601 17 78 14.5 27.4 0.00 0.00 0.00 49 1013.8
20260510104100 17 39 14.5 27.4 0.00 0.00 0.00 51 1013.9
20260510103559 17 35 11.3 30.6 0.00 0.00 0.00 49 1014.0
20260510103100 17 32 12.9 30.6 0.00 0.00 0.00 48 1013.9
20260510102611 18 14 12.9 24.1 0.00 0.00 0.00 50 1013.9
20260510102059 17 39 14.5 24.1 0.00 0.00 0.00 49 1013.9
20260510101611 17 35 12.9 20.9 0.00 0.00 0.00 50 1014.1
20260510101424 17 30 11.3 29.0 0.00 0.00 0.00 51 1014.1
20260510100558 17 52 16.1 29.0 0.00 0.00 0.00 50 1014.3
20260510100109 17 17 17.7 25.7 0.00 0.00 0.00 51 1014.2
20260510095558 17 51 16.1 25.7 0.00 0.00 0.00 51 1014.4
20260510095402 16 39 8.0 24.1 0.00 0.00 0.00 52 1014.3
20260510094559 16 62 14.5 24.1 0.00 0.00 0.00 52 1014.3
20260510094343 17 34 12.9 27.4 0.00 0.00 0.00 52 1014.0
20260510093843 16 54 16.1 27.4 0.00 0.00 0.00 52 1013.9
20260510093059 16 52 9.7 25.7 0.00 0.00 0.00 53 1014.0
20260510092557 16 20 11.3 25.7 0.00 0.00 0.00 53 1013.8
20260510092059 16 8 9.7 29.0 0.00 0.00 0.00 54 1013.7
20260510091610 16 25 12.9 29.0 0.00 0.00 0.00 54 1013.6
20260510091101 16 38 16.1 24.1 0.00 0.00 0.00 53 1013.4
20260510090609 16 37 11.3 24.1 0.00 0.00 0.00 54 1013.3
20260510090109 16 20 11.3 25.7 0.00 0.00 0.00 56 1013.3
20260510085600 16 37 14.5 25.7 0.00 0.00 0.00 56 1013.2
20260510085057 16 41 14.5 25.7 0.00 0.00 0.00 56 1013.0
20260510084647 15 28 14.5 25.7 0.00 0.00 0.00 57 1012.8
20260510084628 16 27 11.3 25.7 0.00 0.00 0.00 57 1013.0
20260510083505 15 34 9.7 24.1 0.00 0.00 0.00 58 1012.7
20260510083252 15 39 14.5 22.5 0.00 0.00 0.00 58 1012.4
20260510082503 15 17 12.9 20.9 0.00 0.00 0.00 57 1012.3
20260510082005 15 1 12.9 22.5 0.00 0.00 0.00 58 1012.5
20260510081504 15 51 11.3 22.5 0.00 0.00 0.00 59 1012.9
20260510081005 15 35 12.9 22.5 0.00 0.00 0.00 58 1014.5
20260510080504 15 45 9.7 20.9 0.00 0.00 0.00 61 1014.6
20260510080005 15 47 9.7 24.1 0.00 0.00 0.00 61 1014.7
20260510075529 15 35 9.7 24.1 0.00 0.00 0.00 61 1014.6
20260510075250 15 31 12.9 24.1 0.00 0.00 0.00 61 1014.6
20260510074503 15 38 11.3 27.4 0.00 0.00 0.00 64 1014.8
20260510074005 14 27 12.9 27.4 0.00 0.00 0.00 64 1014.7
20260510073503 14 49 11.3 25.7 0.00 0.00 0.00 65 1014.8
20260510073003 14 55 9.7 25.7 0.00 0.00 0.00 66 1014.8
20260510072503 13 58 11.3 24.1 0.00 0.00 0.00 67 1014.9
20260510072004 13 48 11.3 25.7 0.00 0.00 0.00 66 1015.0
20260510071755 13 49 12.9 25.7 0.00 0.00 0.00 68 1014.9
20260510071003 13 32 9.7 22.5 0.00 0.00 0.00 69 1014.9
20260510070503 13 44 11.3 22.5 0.00 0.00 0.00 69 1015.0
20260510070004 13 35 9.7 29.0 0.00 0.00 0.00 69 1015.0
20260510065501 13 31 16.1 29.0 0.00 0.00 0.00 69 1015.0
20260510065003 13 28 12.9 24.1 0.00 0.00 0.00 70 1015.0
20260510064501 12 31 9.7 27.4 0.00 0.00 0.00 72 1015.0
20260510064306 12 34 12.9 20.9 0.00 0.00 0.00 75 1014.9
20260510064201 12 63 9.7 27.4 0.00 0.00 0.00 73 1014.9
20260510063935 12 39 11.3 20.9 0.00 0.00 0.00 74 1015.0
20260510062457 12 23 12.9 20.9 0.00 0.00 0.00 75 1015.1
20260510062011 12 1 9.7 20.9 0.00 0.00 0.00 77 1015.1
20260510061457 11 20 9.7 20.9 0.00 0.00 0.00 78 1015.0
20260510060958 11 14 8.0 20.9 0.00 0.00 0.00 80 1015.1
20260510060458 11 34 9.7 17.7 0.00 0.00 0.00 81 1015.1
20260510060251 11 13 9.7 17.7 0.00 0.00 0.00 82 1015.1
20260510055458 11 25 6.4 16.1 0.00 0.00 0.00 83 1015.0
20260510054956 10 34 8.0 20.9 0.00 0.00 0.00 83 1015.1
20260510054456 10 21 8.0 20.9 0.00 0.00 0.00 84 1015.0
20260510053955 10 38 8.0 17.7 0.00 0.00 0.00 85 1015.1
20260510053456 10 8 8.0 16.1 0.00 0.00 0.00 86 1015.0
20260510052957 10 24 6.4 16.1 0.00 0.00 0.00 86 1015.0
20260510052818 10 37 6.4 11.3 0.00 0.00 0.00 86 1015.0
20260510051957 10 31 6.4 11.3 0.00 0.00 0.00 86 1015.1
20260510051457 10 24 6.4 11.3 0.00 0.00 0.00 87 1015.0
20260510050957 10 25 6.4 11.3 0.00 0.00 0.00 86 1015.1
20260510050457 10 28 6.4 14.5 0.00 0.00 0.00 86 1015.1
20260510045957 10 27 6.4 14.5 0.00 0.00 0.00 86 1015.1
20260510045453 10 24 4.8 9.7 0.00 0.00 0.00 87 1015.1
20260510044953 10 24 4.8 9.7 0.00 0.00 0.00 87 1015.0
20260510044452 10 34 4.8 14.5 0.00 0.00 0.00 87 1015.1
20260510044242 10 32 4.8 14.5 0.00 0.00 0.00 87 1015.1
20260510043454 10 4 6.4 11.3 0.00 0.00 0.00 87 1015.0
20260510042952 10 35 6.4 11.3 0.00 0.00 0.00 87 1015.0
20260510042451 10 24 4.8 11.3 0.00 0.00 0.00 87 1015.0
20260510041951 10 10 6.4 9.7 0.00 0.00 0.00 87 1015.0
20260510041454 10 38 6.4 9.7 0.00 0.00 0.00 87 1014.9
20260510041242 10 18 6.4 8.0 0.00 0.00 0.00 87 1014.9
20260510040450 10 31 4.8 16.1 0.00 0.00 0.00 86 1015.0
20260510035950 10 34 6.4 16.1 0.00 0.00 0.00 87 1015.0
20260510035451 10 31 4.8 9.7 0.00 0.00 0.00 87 1015.0
20260510034952 10 10 6.4 11.3 0.00 0.00 0.00 86 1015.1
20260510034556 10 18 4.8 11.3 0.00 0.00 0.00 86 1015.1
20260510034528 10 32 6.4 11.3 0.00 0.00 0.00 86 1015.1
20260510033450 10 18 6.4 14.5 0.00 0.00 0.00 86 1015.2
20260510032950 10 20 4.8 14.5 0.00 0.00 0.00 85 1015.1
20260510032447 10 16 4.8 9.7 0.00 0.00 0.00 85 1015.2
20260510031946 10 17 4.8 9.7 0.00 0.00 0.00 85 1015.1
20260510031736 10 11 4.8 8.0 0.00 0.00 0.00 84 1015.2
20260510030945 10 31 3.2 8.0 0.00 0.00 0.00 84 1015.2
20260510030740 10 25 4.8 8.0 0.00 0.00 0.00 84 1015.2
20260510025945 10 24 4.8 8.0 0.00 0.00 0.00 84 1015.0
20260510025443 10 35 4.8 8.0 0.00 0.00 0.00 84 1015.0
20260510024942 10 59 4.8 8.0 0.00 0.00 0.00 84 1015.1
20260510024446 10 11 4.8 8.0 0.00 0.00 0.00 83 1015.1
20260510024001 10 16 3.2 9.7 0.00 0.00 0.00 83 1015.1
20260510023453 10 11 6.4 9.7 0.00 0.00 0.00 83 1015.3
20260510022940 10 13 3.2 9.7 0.00 0.00 0.00 82 1015.3
20260510022755 10 10 3.2 9.7 0.00 0.00 0.00 82 1015.3
20260510021939 10 28 3.2 8.0 0.00 0.00 0.00 82 1015.2
20260510021439 10 21 3.2 8.0 0.00 0.00 0.00 82 1015.2
20260510020938 10 41 3.2 9.7 0.00 0.00 0.00 82 1015.2
20260510020439 10 20 4.8 9.7 0.00 0.00 0.00 82 1015.3
20260510015938 10 27 4.8 8.0 0.00 0.00 0.00 81 1015.3
20260510015730 10 21 4.8 14.5 0.00 0.00 0.00 81 1015.4
20260510014943 10 30 6.4 16.1 0.00 0.00 0.00 81 1015.4
20260510014450 10 11 9.7 16.1 0.00 0.00 0.00 81 1015.3
20260510013938 10 18 9.7 16.1 0.00 0.00 0.00 81 1015.4
20260510013743 10 23 9.7 16.1 0.00 0.00 0.00 81 1015.4
20260510012937 10 10 11.3 14.5 0.00 0.00 0.00 81 1015.5
20260510012748 10 14 8.0 9.7 0.00 0.00 0.00 81 1015.5
20260510012004 10 13 8.0 9.7 0.00 0.00 0.00 81 1015.7
20260510011438 10 16 6.4 8.0 0.00 0.00 0.00 80 1015.7
20260510010932 10 8 3.2 8.0 0.00 0.00 0.00 80 1015.6
20260510010433 10 16 3.2 6.4 0.00 0.00 0.00 79 1015.5
20260510005934 10 13 3.2 8.0 0.00 0.00 0.00 79 1015.5
20260510005720 10 13 3.2 9.7 0.00 0.00 0.00 79 1015.5
20260510005216 10 10 6.4 9.7 0.00 0.00 0.00 79 1015.7
20260510004431 10 13 6.4 9.7 0.00 0.00 0.00 79 1015.7
20260510003931 10 3 6.4 9.7 0.00 0.00 0.00 78 1015.8
20260510003758 10 18 3.2 8.0 0.00 0.00 0.00 78 1015.7
20260510002931 10 10 4.8 8.0 0.00 0.00 0.00 78 1015.7
20260510002723 10 13 6.4 8.0 0.00 0.00 0.00 77 1015.7
20260510001934 10 7 4.8 9.7 0.00 0.00 0.00 77 1015.7
20260510001430 10 11 4.8 9.7 0.00 0.00 0.00 77 1015.8
20260510001215 10 16 6.4 9.7 0.00 0.00 0.00 76 1015.8
20260510000430 10 18 6.4 9.7 0.00 0.00 0.00 76 1015.8
20260509235931 11 14 6.4 9.7 0.00 0.00 0.00 75 1015.8
20260509235542 11 14 9.7 11.3 0.00 0.00 0.00 75 1016.0
20260509235518 11 16 6.4 11.3 0.00 0.00 0.00 75 1015.9
20260509234719 11 13 8.0 11.3 0.00 0.00 0.00 75 1016.0
20260509233932 11 14 6.4 9.7 0.00 0.00 0.00 75 1015.9
20260509233431 11 8 3.2 8.0 0.00 0.00 0.00 74 1016.0
20260509233218 11 14 4.8 8.0 0.00 0.00 0.00 74 1015.9
20260509232714 11 14 4.8 9.7 0.00 0.00 0.00 73 1016.0
20260509231929 11 13 4.8 9.7 0.00 0.00 0.00 73 1015.9
20260509231430 11 16 6.4 9.7 0.00 0.00 0.00 73 1016.0
20260509230946 11 11 6.4 9.7 0.00 0.00 0.00 72 1015.9
20260509230432 11 14 6.4 9.7 0.00 0.00 0.00 72 1016.0
20260509225929 11 13 4.8 8.0 0.00 0.00 0.00 72 1016.1
20260509225430 11 11 4.8 8.0 0.00 0.00 0.00 72 1016.1
20260509224931 11 13 4.8 6.4 0.00 0.00 0.00 72 1016.1
20260509224536 11 8 3.2 6.4 0.00 0.00 0.00 71 1016.1
20260509224507 11 10 3.2 6.4 0.00 0.00 0.00 71 1016.1
20260509223434 11 1 4.8 6.4 0.00 0.00 0.00 70 1016.1
20260509222932 11 10 3.2 6.4 0.00 0.00 0.00 70 1016.2
20260509222431 12 10 4.8 6.4 0.00 0.00 0.00 69 1016.2
20260509222252 12 8 3.2 6.4 0.00 0.00 0.00 69 1016.2
20260509221954 12 3 4.8 6.4 0.00 0.00 0.00 69 1016.2
20260509220931 12 20 3.2 6.4 0.00 0.00 0.00 69 1016.3
20260509220430 12 31 3.2 4.8 0.00 0.00 0.00 69 1016.2
20260509220100 12 13 4.8 9.7 0.00 0.00 0.00 68 1016.2
20260509220021 12 16 3.2 9.7 0.00 0.00 0.00 68 1016.1
20260509214929 12 10 8.0 9.7 0.00 0.00 0.00 68 1016.1
20260509214431 12 16 3.2 6.4 0.00 0.00 0.00 68 1016.1
20260509213945 12 25 3.2 4.8 0.00 0.00 0.00 67 1016.0
20260509213435 12 25 3.2 6.4 0.00 0.00 0.00 67 1016.1
20260509212930 12 20 3.2 8.0 0.00 0.00 0.00 66 1016.1
20260509212736 13 13 4.8 8.0 0.00 0.00 0.00 66 1016.0
20260509211930 13 17 3.2 6.4 0.00 0.00 0.00 66 1016.0
20260509211704 13 16 3.2 6.4 0.00 0.00 0.00 65 1016.1
20260509210930 13 16 3.2 6.4 0.00 0.00 0.00 64 1016.0
20260509210715 13 30 3.2 6.4 0.00 0.00 0.00 63 1016.1
20260509205929 13 38 3.2 8.0 0.00 0.00 0.00 63 1016.1
20260509205713 13 31 3.2 8.0 0.00 0.00 0.00 62 1016.2
20260509205217 14 32 4.8 8.0 0.00 0.00 0.00 61 1016.2
20260509204431 14 54 3.2 8.0 0.00 0.00 0.00 61 1016.1
20260509204222 14 38 4.8 8.0 0.00 0.00 0.00 61 1016.2
20260509203429 14 28 4.8 8.0 0.00 0.00 0.00 61 1016.3
20260509202930 14 28 3.2 8.0 0.00 0.00 0.00 61 1016.2
20260509202430 14 39 3.2 9.7 0.00 0.00 0.00 60 1016.3
20260509202211 14 51 4.8 9.7 0.00 0.00 0.00 60 1016.2
20260509201443 15 18 3.2 8.0 0.00 0.00 0.00 59 1016.2
20260509200943 15 23 4.8 8.0 0.00 0.00 0.00 58 1016.3
20260509200430 15 47 4.8 8.0 0.00 0.00 0.00 57 1016.1
20260509195930 15 39 6.4 11.3 0.00 0.00 0.00 56 1016.0
20260509195429 15 34 6.4 11.3 0.00 0.00 0.00 56 1016.0
20260509194931 15 44 6.4 11.3 0.00 0.00 0.00 56 1016.1
20260509194431 15 30 4.8 11.3 0.00 0.00 0.00 56 1016.0
20260509193931 16 28 6.4 11.3 0.00 0.00 0.00 55 1016.1
20260509193430 16 17 6.4 11.3 0.00 0.00 0.00 55 1016.2
20260509192930 16 23 6.4 16.1 0.00 0.00 0.00 55 1016.1
20260509192429 16 24 4.8 16.1 0.00 0.00 0.00 55 1016.1
20260509191930 16 31 6.4 11.3 0.00 0.00 0.00 54 1016.0
20260509191430 16 25 4.8 14.5 0.00 0.00 0.00 54 1016.0
20260509190930 16 32 6.4 14.5 0.00 0.00 0.00 54 1015.9
20260509190733 16 0 8.0 11.3 0.00 0.00 0.00 53 1015.9
20260509185930 17 27 4.8 8.0 0.00 0.00 0.00 53 1015.9
20260509185430 17 37 3.2 8.0 0.00 0.00 0.00 53 1015.9
20260509184937 17 20 3.2 8.0 0.00 0.00 0.00 53 1015.8
20260509184431 17 16 3.2 8.0 0.00 0.00 0.00 52 1015.9
20260509183930 17 17 4.8 11.3 0.00 0.00 0.00 51 1015.8
20260509183431 18 0 6.4 11.3 0.00 0.00 0.00 51 1015.9
20260509182930 18 16 8.0 11.3 0.00 0.00 0.00 50 1015.7
20260509182439 18 27 4.8 8.0 0.00 0.00 0.00 50 1015.7
20260509181930 18 34 4.8 14.5 0.00 0.00 0.00 49 1015.6
20260509181431 18 10 6.4 14.5 0.00 0.00 0.00 48 1015.5
20260509181205 18 30 3.2 11.3 0.00 0.00 0.00 48 1015.7
20260509180431 18 34 3.2 14.5 0.00 0.00 0.00 48 1015.5
20260509180236 18 7 6.4 14.5 0.00 0.00 0.00 48 1015.5
20260509175431 18 37 6.4 9.7 0.00 0.00 0.00 48 1015.3
20260509174930 19 38 4.8 9.7 0.00 0.00 0.00 46 1015.3
20260509174432 19 28 4.8 9.7 0.00 0.00 0.00 46 1015.3
20260509173931 19 20 4.8 14.5 0.00 0.00 0.00 46 1015.3
20260509173430 19 14 4.8 14.5 0.00 0.00 0.00 46 1015.4
20260509172931 19 42 6.4 14.5 0.00 0.00 0.00 45 1015.3
20260509172431 19 38 4.8 14.5 0.00 0.00 0.00 46 1015.4
20260509171930 19 32 6.4 11.3 0.00 0.00 0.00 45 1015.4
20260509171715 19 13 4.8 14.5 0.00 0.00 0.00 44 1015.3
20260509170931 20 37 6.4 14.5 0.00 0.00 0.00 44 1015.2
20260509170436 20 34 6.4 17.7 0.00 0.00 0.00 43 1015.3
20260509165931 20 52 11.3 17.7 0.00 0.00 0.00 44 1015.4
20260509165432 20 48 11.3 17.7 0.00 0.00 0.00 43 1015.5
20260509164947 20 41 6.4 17.7 0.00 0.00 0.00 44 1015.3
20260509164748 20 23 4.8 11.3 0.00 0.00 0.00 44 1015.4
20260509163932 20 55 6.4 11.3 0.00 0.00 0.00 43 1015.4
20260509163439 20 58 8.0 17.7 0.00 0.00 0.00 43 1015.5
20260509163212 20 55 6.4 17.7 0.00 0.00 0.00 42 1015.6
20260509162430 20 102 6.4 16.1 0.00 0.00 0.00 45 1015.5
20260509161931 20 37 8.0 16.1 0.00 0.00 0.00 42 1015.4
20260509161429 20 10 9.7 16.1 0.00 0.00 0.00 43 1015.3
20260509160930 21 21 8.0 16.1 0.00 0.00 0.00 43 1015.4
20260509160430 20 0 8.0 11.3 0.00 0.00 0.00 43 1015.3
20260509155930 21 331 4.8 9.7 0.00 0.00 0.00 43 1015.4
20260509155820 21 4 6.4 11.3 0.00 0.00 0.00 41 1015.5
20260509155800 21 78 3.2 11.3 0.00 0.00 0.00 43 1015.5
20260509154430 21 87 3.2 8.0 0.00 0.00 0.00 42 1015.5
20260509153935 21 96 6.4 11.3 0.00 0.00 0.00 42 1015.5
20260509153430 21 79 4.8 11.3 0.00 0.00 0.00 41 1015.5
20260509152930 21 48 6.4 11.3 0.00 0.00 0.00 41 1015.6
20260509152436 21 39 4.8 6.4 0.00 0.00 0.00 43 1015.7
20260509152234 21 138 0.0 9.7 0.00 0.00 0.00 42 1015.7
20260509151508 21 31 6.4 16.1 0.00 0.00 0.00 44 1015.6
20260509151452 21 76 4.8 16.1 0.00 0.00 0.00 44 1015.7
20260509150429 21 20 8.0 16.1 0.00 0.00 0.00 44 1015.8
20260509145931 21 13 6.4 17.7 0.00 0.00 0.00 43 1015.7
20260509145431 21 52 11.3 17.7 0.00 0.00 0.00 44 1015.8
20260509144932 21 8 8.0 16.1 0.00 0.00 0.00 42 1015.7
20260509144431 21 103 6.4 9.7 0.00 0.00 0.00 41 1015.8
20260509143930 21 51 6.4 9.7 0.00 0.00 0.00 41 1015.8
20260509143740 21 56 3.2 8.0 0.00 0.00 0.00 40 1015.9
20260509142946 21 317 4.8 11.3 0.00 0.00 0.00 42 1016.0
20260509142431 21 341 6.4 11.3 0.00 0.00 0.00 45 1016.0
20260509141929 21 21 6.4 9.7 0.00 0.00 0.00 44 1016.0
20260509141431 20 357 4.8 11.3 0.00 0.00 0.00 47 1016.0
20260509140931 20 47 4.8 14.5 0.00 0.00 0.00 45 1016.1
20260509140430 20 45 6.4 14.5 0.00 0.00 0.00 45 1016.2
20260509135929 20 63 4.8 14.5 0.00 0.00 0.00 44 1016.3
20260509135430 20 10 4.8 11.3 0.00 0.00 0.00 43 1016.1
20260509134930 21 39 6.4 11.3 0.00 0.00 0.00 42 1016.2
20260509134441 21 32 4.8 11.3 0.00 0.00 0.00 43 1016.2
20260509133937 21 94 3.2 11.3 0.00 0.00 0.00 40 1016.4
20260509133432 21 27 6.4 11.3 0.00 0.00 0.00 42 1016.4
20260509132933 21 31 6.4 11.3 0.00 0.00 0.00 43 1016.6
20260509132429 21 41 4.8 6.4 0.00 0.00 0.00 42 1016.5
20260509131930 20 35 0.0 6.4 0.00 0.00 0.00 44 1016.7
20260509131431 20 345 3.2 6.4 0.00 0.00 0.00 44 1016.8
20260509130929 20 343 4.8 9.7 0.00 0.00 0.00 44 1016.8
20260509130429 20 17 6.4 11.3 0.00 0.00 0.00 45 1017.0
20260509130008 20 18 3.2 16.1 0.00 0.00 0.00 43 1017.0
20260509125428 20 32 8.0 16.1 0.00 0.00 0.00 45 1017.0
20260509124929 21 23 8.0 14.5 0.00 0.00 0.00 44 1017.0
20260509124428 20 90 4.8 11.3 0.00 0.00 0.00 45 1017.0
20260509123930 20 32 8.0 11.3 0.00 0.00 0.00 47 1017.1
20260509123428 20 114 1.6 14.5 0.00 0.00 0.00 43 1017.0
20260509123222 20 82 4.8 14.5 0.00 0.00 0.00 45 1017.1
20260509122428 20 45 6.4 14.5 0.00 0.00 0.00 45 1017.2
20260509121939 20 123 8.0 14.5 0.00 0.00 0.00 43 1017.2
20260509121715 20 138 6.4 16.1 0.00 0.00 0.00 46 1017.4
20260509120938 20 54 6.4 16.1 0.00 0.00 0.00 44 1017.4
20260509120424 19 21 4.8 14.5 0.00 0.00 0.00 49 1017.4
20260509120220 18 23 6.4 14.5 0.00 0.00 0.00 49 1017.4
20260509115423 18 3 3.2 11.3 0.00 0.00 0.00 46 1017.4
20260509114924 18 0 6.4 14.5 0.00 0.00 0.00 48 1017.5
20260509114422 19 72 4.8 16.1 0.00 0.00 0.00 47 1017.5
20260509113924 20 44 8.0 19.3 0.00 0.00 0.00 44 1017.5